Weather in Taskayevo

Russia / Novosibirsk Oblast     55°05′53″N   78°36′39″E
temp.,
°C
wind,
m/s
gust,
m/s
humid.,
%
clouds,
%
prec.,
mm/h
press.,
hPa
HPBL,
m
18 may, wed
wed1801:00+16wsw51150100 0.0 1006447
04:00+14sw4952100 0.0 1007134
07:00+13w356399 0.0 100975
10:00+16w46485 0.0 1010402
13:00+19wsw4538100 0.0 10101153
16:00+18ssw4444100 0.0 1010906
19:00+14wsw1278100 0.6 101078
22:00+13sse337899 0.1 100944
19 may, thu
thu1901:00+13sse2275100 0.1 100918
04:00+12nnw4587100 0.1 100777
07:00+12nne3497100 3.0 100685
10:00+11se1297100 5.9 100570
13:00+14sw599035 6.1 1005384
16:00+15wsw71364100 0.4 1005486
19:00+17wsw7114134 0.4 10051566
22:00+13sw6125778 0.3 1007257
20 may, fri
fri2001:00+10sw5107133 0.5 1009212
04:00+11sw612665 0.0 1009263
07:00+11sw713685 0.0 1010391
10:00+13wsw1014595 0.0 1011826
13:00+14wsw10134821 0.0 1013961
16:00+16wsw812405 0.0 10131366
19:00+16sw71144100 0.0 10111597
22:00+14sw71359100 0.0 1011303
21 may, sat
sat2101:00+12sw4970100 0.0 1012171
04:00+11ssw61274100 0.0 1011160
07:00+12s4107190 0.0 1010218
10:00+17ssw7115116 0.0 1009418
13:00+22ssw810390 0.0 10071009
16:00+23s8103383 0.0 10051470
19:00+23s6103753 0.0 10041154
22:00+18se5115424 0.0 1003133
22 may, sun
sun2201:00+17se6135435 0.0 1001198
04:00+15se613585 0.0 999179
07:00+14se61266100 0.0 998168
10:00+18wsw91253100 0.0 999548
13:00+16w111361100 0.0 1003609
16:00+16w79472 0.0 1006911
19:00+16w78420 0.0 1008982
22:00+12wsw45500 0.0 101063